User: anonymous   Login
Location: Cluny
(50.9333°N, 112.8167°W)
Time: 23:44:32
(UTC-06:00)
Language:

Cosmos 1743 Rocket - Orbit

View from above orbital plane
View from above orbital plane
View from above satellite
View from above satellite

Ground track
Ground track

The orbit data is extracted from the following two-line orbital elements,

1 16720U 86034B   15146.22676089  .00000175  00000-0  18480-4 0  9992
2 16720 082.5557 223.3856 0021760 067.3051 348.9848 14.83079807567657
Epoch (UTC): 26 May 2015 05:26:32
Eccentricity: 0.0021760
inclination: 82.5557°
perigee height: 604 km
apogee height: 635 km
right ascension of ascending node: 223.3856°
argument of perigee: 67.3051°
revolutions per day: 14.83079807
mean anomaly at epoch: 348.9848°
orbit number at epoch: 56765

The dashed part of the orbit path shows where the satellite is in the earth's shadow,  

DLR